Location: Kudlacze
(49.7800°N, 20.0200°E)
Time: 12:30:13
(UTC+00:00)

Envisat - Pass Details

Date: 28 September 2021
Orbit: 764 x 766 km, 98.2° (Epoch: 20 October)

Event Time Altitude Azimuth Distance (km) Brightness Sun altitude
Rises 03:43:33 0° 16° (NNE) 3,244 6.6 -9.2°
Reaches altitude 10° 03:45:54 10° 20° (NNE) 2,313 5.9 -8.8°
Maximum altitude 03:50:57 63° 101° (ESE) 852 3.6 -8.0°
Drops below altitude 10° 03:55:59 10° 183° (S) 2,295 5.4 -7.2°
Sets 03:58:18 0° 187° (S) 3,217 6.1 -6.8°
